Location: La Brionne
(46.1728°N, 1.7849°E)
Time: 12:10:53
(UTC+00:00)

USA 267 - Pass Details

Date: 30 October 2021
Orbit: 1101 x 1107 km, 123.0° (Epoch: 25 November)

Event Time Altitude Azimuth Distance (km) Brightness Sun altitude
Exits shadow 17:05:07 - 100° (E) 3,748 5.5 -4.8°
Reaches altitude 10° 17:07:14 10° 96° (E) 2,957 4.9 -5.1°
Maximum altitude 17:13:29 51° 23° (NNE) 1,364 3.6 -6.2°
Drops below altitude 10° 17:19:45 10° 311° (NW) 2,964 6.1 -7.2°
Sets 17:22:18 0° 306° (NW) 3,924 6.8 -7.6°
